Regional Weather Roundup
Issued by NWS State College, PA

Home | Current Version | Previous Version | Text Only | Print | Product List | Glossary On
Versions: 1 2 3 4 5 6 7 8 9 10 11 12 13 14 15 16 17 18 19 20 21 22 23 24 25 26 27 28 29 30 31 32 33 34 35 36 37 38 39 40 41 42 43 44 45 46 47 48 49 50
000
ASUS41 KCTP 201203
RWRCTP

REGIONAL WEATHER ROUNDUP
NATIONAL WEATHER SERVICE STATE COLLEGE PA
700 AM EST TUE FEB 20 2018

Note: "fair" indicates few or no clouds below 12,000 feet with no
significant weather and/or obstructions to visibility.

* = STATION THAT DOES NOT REPORT PRECIPITATION /E.G. RAIN...SNOW...ETC/
    THUNDER OR FOG.

PAZ002>004-007>009-013>016-020>023-029>032-201300-
WESTERN PENNSYLVANIA

CITY           SKY/WX    TMP DP  RH WIND       PRES   REMARKS
ERIE           CLOUDY    64  53  67 S18G29    30.06S
MEADVILLE      CLOUDY    59  53  80 S10       30.12S
FRANKLIN*      NOT AVBL
NEW CASTLE     CLOUDY    61  55  81 S12G18    30.16R
BEAVER COUNTY  CLOUDY    61  52  72 S10       30.18
BUTLER*        MOCLDY    60  52  74 S10       30.19R
PITTSBURGH INT CLOUDY    60  52  74 S8        30.18S
PITTSBURGH     FAIR      59  49  69 S8        30.20S
INDIANA*       MOCLDY    59  54  82 SW6       30.26R
LATROBE        PTCLDY    59  52  77 SW12      30.23R
WASHINGTON CO* MOCLDY    62  52  69 S10       30.23S
$$

PAZ004>006-010>012-017>019-024>028-033>037-041-042-045-046-049>053-201300-
CENTRAL PENNSYLVANIA

CITY           SKY/WX    TMP DP  RH WIND       PRES   REMARKS
BRADFORD       FAIR      55  51  86 SW7       30.17R
DUBOIS         MOCLDY    58  50  75 SW10G18   30.19R
CLEARFIELD     FOG       36  36 100 CALM      30.23R VSB 3/4
JOHNSTOWN      MOCLDY    59  50  72 SW12      30.25R
ALTOONA        FAIR      45  44  97 W7        30.26R
STATE COLLEGE  FOG       32  32 100 CALM      30.25S VSB 3/4
WILLIAMSPORT   FOG       41  41 100 E7        30.28R VSB 1/2
SELINSGROVE    FOG       41  40  96 E3        30.30R VSB 1/4
FT INDIANTOWN  FOG       41  41 100 CALM      30.32R VSB 1/8
CAPITAL CITY   FOG       44  43  96 CALM      30.32R VSB 1/4
HARRISBURG     FOG       41  40  96 CALM      30.32R VSB<1/4
YORK           CLOUDY    49  49 100 VRB5      30.32R
$$

PAZ038>040-043-044-047-048-054-055-060>062-067>071-201300-
EASTERN PENNSYLVANIA

CITY           SKY/WX    TMP DP  RH WIND       PRES   REMARKS
SCRANTON       CLOUDY    43  43 100 S5        30.28R FOG
MOUNT POCONO   FOG       43  43 100 W6        30.27R VSB 1/2
ALLENTOWN      FOG       38  36  92 CALM      30.33R VSB 1/4
QUAKERTOWN*    FOG       39  39 100 CALM      30.33R VSB 1/4
READING        FOG       39  39 100 CALM      30.33R VSB 1/8
LANCASTER      FOG       45  45 100 CALM      30.33R VSB<1/4
COATESVILLE    FOG       50 N/A N/A VRB3      30.35R VSB<1/4
POTTSTOWN      FOG       47  47 100 CALM      30.35R VSB 1
BLUE BELL      CLOUDY    50  50 100 SW5       30.36R
DOYLESTOWN     CLOUDY    49  49 100 SW6       30.33R FOG
WILLOW GROVE   NOT AVBL
NORTH PHILA    CLOUDY    54  52  93 SW9       30.36R FOG
PHILADELPHIA   DRIZZLE   51  51 100 SW14      30.35R FOG
$$




USA.gov is the U.S. government's official web portal to all federal, state and local government web resources and services.